Location: Taipo
(41.0000°S, 175.9500°E)
Time: 04:59:30
(UTC+00:00)

ACS3 Solar Sail - Visible Passes

Search period start: 17 January 2026 00:00
Search period end: 27 January 2026 00:00
Orbit: 896 x 981 km, 97.2° (Epoch: 16 January)

Date Brightness Start Highest point End Pass type
(mag) Time Alt. Az. Time Alt. Az. Time Alt. Az.
17 Jan 3.9 12:30:41 11° E 12:33:56 17° ESE 12:37:33 10° SSE visible
17 Jan 1.6 14:14:34 52° NNW 14:15:59 72° W 14:21:48 10° SSW visible
18 Jan 3.5 12:44:55 16° E 12:47:41 22° ESE 12:52:02 10° SSE visible
18 Jan 1.8 14:28:48 46° NW 14:29:58 54° W 14:35:39 10° SSW visible
19 Jan 3.2 12:59:07 22° ENE 13:01:27 29° ESE 13:06:21 10° S visible
19 Jan 2.1 14:43:00 37° WNW 14:43:58 40° W 14:49:24 10° SSW visible
20 Jan 2.7 13:13:19 30° ENE 13:15:15 38° ESE 13:20:33 10° S visible
20 Jan 2.5 14:57:12 29° WNW 14:57:59 30° W 15:03:02 10° SSW visible
21 Jan 2.3 13:27:30 40° ENE 13:29:04 50° ESE 13:34:39 10° S visible
21 Jan 2.8 15:11:22 22° W 15:12:02 23° W 15:16:31 10° SW visible
22 Jan 1.8 13:41:41 53° NE 13:42:54 67° ESE 13:48:39 10° S visible
22 Jan 3.2 15:25:33 17° W 15:26:06 17° W 15:29:43 10° SW visible
23 Jan 4.0 12:12:27 10° E 12:14:58 13° ESE 12:17:29 10° SSE visible
23 Jan 1.5 13:55:50 65° NNE 13:56:45 87° ESE 14:02:36 10° S visible
23 Jan 3.5 15:39:42 12° W 15:40:12 12° W 15:42:20 10° WSW visible
24 Jan 3.8 12:26:07 13° E 12:28:36 17° ESE 12:32:13 10° SSE visible
24 Jan 1.5 14:09:59 65° NW 14:10:38 71° W 14:16:27 10° SSW visible
25 Jan 3.4 12:40:15 19° E 12:42:16 23° ESE 12:46:38 10° SSE visible
25 Jan 1.7 14:24:07 52° WNW 14:24:31 53° W 14:30:12 10° SSW visible
26 Jan 3.1 12:54:22 26° E 12:55:56 29° ESE 13:00:51 10° S visible
26 Jan 2.1 14:38:14 40° W 14:38:27 40° W 14:43:52 10° SSW visible
